Regional Weather Roundup
Issued by NWS Upton, NY

Current Version | Previous Version | Text Only | Print | Product List | Glossary On
Versions: 1 2 3 4 5 6 7 8 9 10 11 12 13 14 15 16 17 18 19 20 21 22 23 24 25 26 27 28
000
ASUS41 KOKX 291404
RWROKX

REGIONAL WEATHER ROUNDUP
NATIONAL WEATHER SERVICE NEW YORK NY
1000 AM EDT FRI JUL 29 2016

NOTE: "FAIR" INDICATES FEW OR NO CLOUDS BELOW 12,000 FEET WITH NO
SIGNIFICANT WEATHER AND/OR OBSTRUCTIONS TO VISIBILITY.

NYZ071-072-176-178-NJZ106-104-291500-
NEW YORK CITY METRO AREA

CITY           SKY/WX    TMP DP  RH WIND       PRES   REMARKS
Central Park   CLOUDY    70  67  90 VRB7      29.88F FOG
LaGuardia APRT LGT RAIN  72  68  87 NE12      29.84F
Kennedy INTL   LGT RAIN  71  67  87 N14       29.85F
Newark/Liberty LGT RAIN  71  69  93 N13       29.85F
Bronx Bot Gard   N/A     70  66  88 NE5       29.87S
Wall St Helipt CLOUDY    72  70  94 NE12      29.85S
Teterboro      CLOUDY    72  67  84 N6        29.85F
$$

NYZ177-179-078>081-291500-
LONG ISLAND NEW YORK

CITY           SKY/WX    TMP DP  RH WIND       PRES   REMARKS
Farmingdale    LGT RAIN  69  68  96 N9        29.85S
MacArthur/ISP  RAIN      69  68  96 N10       29.84S FOG
Shirley        HVY RAIN N/A N/A N/A N9G17     29.84F
Riverhead      NOT AVBL
Westhampton    RAIN      69  67  93 N13       29.86F FOG
Southhampton     N/A     70  68  94 N3        29.82R
Bridgehampton    N/A     68  68 100 E1        29.84R
East Hampton   RAIN      69  67  94 N8        29.85R
Montauk          N/A     71  69  93 N7        29.86R
$$

NYZ052-065-067-291500-
HUDSON VALLEY

CITY           SKY/WX    TMP DP  RH WIND       PRES   REMARKS
White Plains   LGT RAIN  71  67  87 NE6       29.87S
Newburgh       PTSUNNY   73  70  88 VRB5      29.91R
Montgomery     MOSUNNY   77  68  73 VRB5      29.89S
Poughkeepsie   PTSUNNY   77  70  79 N6        29.88R
Albany         PTSUNNY   76  67  73 N7        29.90S
$$

NJZ001-105-106-008-010-013-015-019>022-104-291500-
NEW JERSEY

CITY           SKY/WX    TMP DP  RH WIND       PRES   REMARKS
Newark/Liberty LGT RAIN  71  69  93 N13       29.85F
Teterboro      CLOUDY    72  67  84 N6        29.85F
Caldwell       CLOUDY    72  69  90 NE5       29.88R
Morristown     CLOUDY    70  70 100 N5        29.88R FOG
Somerville     CLOUDY    75  69  81 N7        29.85S
Linden         CLOUDY    72  69  90 N6        29.86F
Sussex         CLOUDY    74  70  87 NE7       29.89S
Abdover          N/A     74  68  81 VRB3      29.89S
Trenton        PTSUNNY   75  70  84 N8        29.84F
Millville      CLOUDY    76  70  82 N15       29.83R
Atlantic City  CLOUDY    73  70  90 N16G24    29.80F
Wrightstown    CLOUDY    72  70  94 N10       29.81F
Toms River     CLOUDY    71  70  96 N10       29.84S
Belmar         RAIN      70  69  97 N8        29.85S FOG
$$

PAZ047>061-062-071-291500-
EASTERN PENNSYLVANIA

CITY           SKY/WX    TMP DP  RH WIND       PRES   REMARKS
Philadelphia   PTSUNNY   77  71  82 N12       29.84F
Allentown      CLOUDY    76  68  76 NE7       29.88S
Scranton       CLOUDY    75  70  84 CALM      29.91S
$$

CTZ002-004>006-009-010-012-RIZ004-006-007-MAZ004-011-015-291500-
SOUTHERN NEW ENGLAND
 IN CT

CITY           SKY/WX    TMP DP  RH WIND       PRES   REMARKS
Bradley INTL   LGT RAIN  74  70  87 N3        29.88F
Hartford       CLOUDY    76  71  85 N7        29.87S
Danbury        PTSUNNY   72  68  87 NE5       29.89F
Wtrbury/Oxford CLOUDY    72  66  83 E7        29.90S
Bridgeport     LGT RAIN  73  69  87 NE9       29.86S
Meriden        CLOUDY    75  70  84 NE7       29.87S
New Haven      LGT RAIN  71  69  93 NE3       29.87R
Chester        LGT RAIN  70  68  94 NE6       29.89R
Groton         LGT RAIN  72  67  84 N14       29.85R
Wilimantic     CLOUDY    74  72  93 NE5       29.89R

 IN RI

CITY           SKY/WX    TMP DP  RH WIND       PRES   REMARKS
Providence     LGT RAIN  74  70  87 N7        29.87S FOG
Block Island   LGT RAIN  70  68  93 NE9G16    29.85S
Westerly       LGT RAIN  72  67  84 N9        29.86S
 IN MA

CITY           SKY/WX    TMP DP  RH WIND       PRES   REMARKS
Boston         LGT RAIN  73  70  90 N8        29.87F
Worchester     PTSUNNY   70  68  93 N6        29.91F
Westfield      CLOUDY    74  69  85 N3        29.88F
Provincetown   CLOUDY    72  70  93 NW8       29.87S
Nantucket      LGT RAIN  73  72  96 E5        29.86R VSB 1/4
$$

ANZ330-335-338-340-345-350-353-355-291500-
COASTAL MARINE OBSERVATIONS


STATION/POSITION TIME  SKY/WX   TEMP    WIND        PRES    VSBY  WAVE
                                AIR SEA DIR/SP/G                  HT/PER
                 (UTC)          (F)     (DEG/KT/KT) (MB)    (MI)  (FT/S)
NY HARB ENTRANCE 1250            70 72   20/ 21/ 25 1009.1          3/ 4
20S FIRE ISLAND  1250            72 77   40/ 19/ 23 1008.7          2/ 3
GREAT SOUTH BAY  1300            70 82   10/ 12/ 17   N/A
23 SSW MONTAUK P 1250            73 73   20/ 12/ 19 1009.9          1/ 8
15 E BARNEGAT LI 1300               78                N/A           2/ 8
HUDSON CANYON    1250            77 79              1008.5          2/ 5
KINGS POINT      NOT AVBL
EXECUTION ROCKS  1315            71      20/  8/ 10   N/A
CENTRAL LI SOUND NOT AVBL
EASTERN LI SOUND 1300            71 68   20/ 12/ 14   N/A
ROBBINS REEF     1300            70      10/ 12/ 14 1010.2
$$


>>>>>>>>>>>>>>>>>>>>>>>>>>>> KEY <<<<<<<<<<<<<<<<<<<<<<<<<<<
>                                                          <
>     SKY/WX - Sky Condition/Present Weather               <
>     TMP    - Temperature in Fahrenheit                   <
>     DP     - Dew Point in Fahrenheit                     <
>     RH     - Relative Humidity in Percent                <
>     WIND   - Direction (from) and Speed in MPH           <
>     PRES   - Mean Sea Level Pressure (inches of Hg)      <
>     WCI    - Wind Chill Index                            <
>     VSB    - VISIBILITY IN MILES                         <
>     HX     - HEAT INDEX                                  <
>     TC     - TEMPERATURE IN CELSIUS                      <
>     VRB    - VARIABLE WIND DIRECTION                     <
>                                                          <
>>>>>>>>>>>>>>>>>>>>>>>>>>>> KEY <<<<<<<<<<<<<<<<<<<<<<<<<<<




USA.gov is the U.S. government's official web portal to all federal, state and local government web resources and services.